Track STARLINK-3191 now! 10-day predictions STARLINK-3191 is classified as:
1 49770U 21115AY 22183.07058430 .00001536 00000-0 11460-3 0 9990 2 49770 53.2171 64.3435 0002614 57.3927 302.7317 15.08846442 33493